Overview Statistics Trail Chart Weather Telemetry Raw packets
 

This is the latest recevied weather packets stored in our database for station/object OE3APM-13. If no packets are shown the sender has not sent any weather packets the latest 10 day(s).

<< 5 6 7 8 9 10 11 >>
Time Temp. Humidity Pressure Rain* Wind** Luminosity Snow
1788575883 17.78° C 68% 1017.7 hPa 0 mm - 0 W/m² -
1788575580 17.78° C 68% 1017.8 hPa 0 mm - 0 W/m² -
1788575274 17.78° C 68% 1017.6 hPa 0 mm - 0 W/m² -
1788574974 17.78° C 67% 1017.5 hPa 0 mm - 0 W/m² -
1788574675 17.78° C 67% 1017.5 hPa 0 mm - 0 W/m² -
1788574376 18.33° C 67% 1017.3 hPa 0 mm - 0 W/m² -
1788574072 18.33° C 68% 1017.4 hPa 0 mm - 0 W/m² -
1788573472 18.89° C 69% 1017.1 hPa 0 mm - 0 W/m² -
1788573173 18.89° C 69% 1016.9 hPa 0 mm - 0 W/m² -
1788572869 19.44° C 68% 1016.9 hPa 0 mm - 0 W/m² -
1788572569 19.44° C 67% 1016.9 hPa 0 mm - 0 W/m² -
1788572259 20° C 66% 1016.5 hPa 0 mm - 0 W/m² -
1788571958 20.56° C 64% 1016.5 hPa 0 mm - 0 W/m² -
1788571658 21.67° C 61% 1016.2 hPa 0 mm - 0 W/m² -
1788571361 21.67° C 60% 1015.9 hPa 0 mm - 0 W/m² -
1788571058 21.67° C 61% 1015.6 hPa 0 mm - 0 W/m² -
1788570760 21.67° C 61% 1015.4 hPa 0 mm - 0 W/m² -
1788570458 21.67° C 60% 1015.4 hPa 0 mm - 0 W/m² -
1788570158 21.67° C 60% 1015.4 hPa 0 mm - 0 W/m² -
1788569860 22.22° C 59% 1015.4 hPa 0 mm - 0 W/m² -
1788569560 22.22° C 59% 1015.4 hPa 0 mm - 0 W/m² -
1788569260 22.22° C 58% 1015.2 hPa 0 mm - 0 W/m² -
1788568958 22.22° C 58% 1015.1 hPa 0 mm - 0 W/m² -
1788568659 22.78° C 58% 1015.1 hPa 0 mm - 0 W/m² -
1788568358 22.78° C 58% 1015 hPa 0 mm - 0 W/m² -

* Rain latest hour (hover to see other rain measurements)
** Current wind speed in m/s (hover to see current wind gust speed)